Weather History for Ashtabula, OH

Change the Weather History Date:

Thursday, November 21, 2013

  Actual Average (KYNG) Record (KYNG)
Temperature  
Mean Temperature 40 °F 40 °F  
Max Temperature 43 °F 47 °F 71 °F (1930)
Min Temperature 36 °F 33 °F 9 °F (1951)
Degree Days  
Heating Degree Days 26 26  
Month to date heating degree days 460  
Since 1 July heating degree days 1081  
Cooling Degree Days 0 0  
Month to date cooling degree days 0  
Year to date cooling degree days 544  
Moisture  
Dew Point 28 °F    
Average Humidity 67    
Maximum Humidity 86    
Minimum Humidity 39    
Precipitation  
Precipitation 0.18 in 0.12 in 0.89 in (1956)
Month to date precipitation 2.21  
Year to date precipitation 34.95  
Snow  
Snow 0.00 in 0.10 in - ()
Month to date snowfall 1.7  
Since 1 July snowfall 2.5  
Since 1 September snowfall 2.5  
Snow Depth -    
Sea Level Pressure  
Sea Level Pressure 30.35 in    
Wind  
Wind Speed 10 mph (SSE)    
Max Wind Speed 15 mph    
Max Gust Speed 22 mph    
Visibility 9 miles    
Events Rain    
T = Trace of Precipitation, MM = Missing Value Source: NWS Daily Summary

Daily Weather History Graph

Daily Weather History Graph

Search for Another Location

Airport:

Trip Planner

Search our weather history database for the weather conditions in past years. The results will help you decide how hot, cold, wet, or windy it might be!

Date:

Astronomy

Nov. 21, 2013 Rise Set
Actual Time 7:19 AM EST 4:57 PM EST
Civil Twilight 6:49 AM EST 5:27 PM EST
Nautical Twilight 6:15 AM EST 6:01 PM EST
Astronomical Twilight 5:42 AM EST 6:35 PM EST
Moon 8:33 PM EST (11/21) 10:24 AM EST (11/21)
Length of Visible Light 10h 38m
Length of Day
9h 37m
Waning Gibbous, 85% of the Moon is Illuminated
Nov 21
Waning Gibbous
Nov 25
Last Quarter
Dec 2
New
Dec 9
First Quarter
Dec 17
Full

Hourly Weather History & Observations

Time (EST) Temp. Windchill Dew Point Humidity Pressure Visibility Wind Dir Wind Speed Gust Speed Precip Events Conditions
12:53 AM 37.0 °F 28.1 °F 14.0 °F 39% 30.37 in 10.0 mi SSE 15.0 mph 21.9 mph N/A   Clear
1:53 AM 37.0 °F 29.3 °F 14.0 °F 39% 30.39 in 10.0 mi SSE 11.5 mph - N/A   Clear
2:53 AM 36.0 °F 27.5 °F 15.1 °F 43% 30.38 in 10.0 mi SSE 12.7 mph - N/A   Clear
3:53 AM 37.0 °F 28.9 °F 16.0 °F 42% 30.38 in 10.0 mi SSE 12.7 mph - N/A   Clear
4:53 AM 37.0 °F 29.3 °F 16.0 °F 42% 30.38 in 10.0 mi SSE 11.5 mph - N/A   Scattered Clouds
5:53 AM 37.0 °F 29.3 °F 17.1 °F 44% 30.39 in 10.0 mi SSE 11.5 mph - N/A   Overcast
6:53 AM 36.0 °F 30.3 °F 19.9 °F 52% 30.43 in 9.0 mi South 6.9 mph - 0.01 in   Overcast
7:53 AM 36.0 °F 29.0 °F 19.9 °F 52% 30.42 in 10.0 mi SSE 9.2 mph - 0.01 in   Overcast
8:53 AM 37.0 °F 29.8 °F 21.9 °F 54% 30.40 in 10.0 mi SSE 10.4 mph - 0.00 in Rain Light Rain
9:53 AM 36.0 °F 29.0 °F 27.0 °F 70% 30.39 in 10.0 mi SSE 9.2 mph - 0.01 in   Overcast
10:53 AM 36.0 °F 28.5 °F 30.0 °F 79% 30.40 in 8.0 mi South 10.4 mph - 0.03 in Rain Light Rain
11:53 AM 37.0 °F 30.4 °F 32.0 °F 82% 30.40 in 7.0 mi South 9.2 mph - 0.02 in Rain Light Rain
12:53 PM 37.9 °F 32.7 °F 33.1 °F 83% 30.38 in 7.0 mi South 6.9 mph - 0.03 in Rain Light Rain
1:53 PM 39.0 °F 31.8 °F 34.0 °F 82% 30.36 in 7.0 mi SSE 11.5 mph - 0.02 in Rain Light Rain
2:53 PM 39.0 °F 34.0 °F 35.1 °F 86% 30.34 in 8.0 mi SSE 6.9 mph - 0.01 in Rain Light Rain
3:53 PM 39.9 °F 33.4 °F 35.1 °F 83% 30.31 in 8.0 mi SSE 10.4 mph - 0.01 in Rain Light Rain
4:53 PM 39.9 °F 35.8 °F 35.1 °F 83% 30.32 in 10.0 mi SSE 5.8 mph - 0.02 in   Overcast
5:53 PM 41.0 °F 37.1 °F 36.0 °F 82% 30.33 in 10.0 mi SSE 5.8 mph - 0.00 in Rain Light Rain
6:53 PM 41.0 °F 37.1 °F 36.0 °F 82% 30.32 in 10.0 mi SE 5.8 mph - 0.01 in   Overcast
7:53 PM 42.1 °F 38.4 °F 36.0 °F 79% 30.30 in 10.0 mi SSE 5.8 mph - N/A   Overcast
8:53 PM 42.1 °F 37.1 °F 35.1 °F 76% 30.27 in 10.0 mi SE 8.1 mph - N/A   Overcast
9:53 PM 43.0 °F 39.5 °F 36.0 °F 76% 30.26 in 10.0 mi SSE 5.8 mph - N/A   Overcast
10:01 PM 42.8 °F 38.6 °F 35.6 °F 76% 30.24 in 10.0 mi SSE 6.9 mph - 0.00 in Rain Light Rain
10:53 PM 43.0 °F 38.2 °F 36.0 °F 76% 30.25 in 10.0 mi SSE 8.1 mph - 0.00 in   Overcast
11:53 PM 43.0 °F 41.3 °F 36.0 °F 76% 30.22 in 10.0 mi SE 3.5 mph - 0.00 in Rain Light Rain